Showing default

MR-2, 67556

Orbit data source: Space-Track

MR-2, 67556 is a payload satellite owned by Open Cosmos (ES) in LEO that was launched on Thu, 22 Jan 2026 UTC via an ELECTRON launch vehicle from the Rocket Lab Launch Complex (RLLC). Payload-class satellites include a variety of spacecraft equipped with specific instruments for various scientific and technological missions. These include communications satellites like Starlink; space stations such as the ISS; scientific satellites like the Hubble; Earth observation satellites from companies like Planet Labs, Umbra, and HawkEye 360; GPS; miniature CubeSats for education and research; and military/defense satellites.

Loading next visibility...
Identifier
67556, 2026-015A
Orbit
LEO
Country
Flag of ESES / SPN
Related business
Manufacturer
Open Cosmos
Mission
Operational Commercial Communications
Bus & Motor
CUBESAT 12U?, Unknown motor
Mass
~20 kg wet, ~20 kg dry
Launch date (UTC)
2026-01-22 (5 months ago)
Launch vehicle
ELECTRON
Launch site
Rocket Lab Launch Complex (RLLC)
Object type
Payload
Rocket body
Debris
Shape & HBR
Box, 0.4 m
Radar Cross Section
0.100 m², Medium (>0.1 m² and < 1m²)

Expand to show TLE details & history
Last TLE update: 13 hours ago

TLE from 13 hours ago
0 MR-2
1 67556U 26015A   26171.31007227  .00000051  00000-0  59175-4 0  9999
2 67556  89.0005 268.2214 0005240  80.5177 279.6567 13.52694656 20132
Epoch: 2026-06-20T07:26Z
TLE epoch observation values (Epoch: 2026-06-20T07:26:30.244Z)
Latitude
-0.00002°
Longitude
-111.93115°
Altitude
1,064.664 km
Speed
7.32 km/s
True Right ascension
17h 52m 53s
True Declination
0° 00' 00"
Sunlit
Object was in full shadow at epoch
Visualization orbit readout
Latitude
Unknown
Longitude
Unknown
Altitude
Unknown
Speed
Unknown
Apparent Right ascension
Unknown
Apparent Declination
Unknown
Sunlit
N/A
Visualization observer readout
Local Sidereal Time
07:24:35
Azimuth
Unknown
Elevation
Unknown
Doppler factor
Unknown
Orbital elements
Apogee altitude
1,063.307 km
Perigee altitude
1,055.512 km
Semi-major axis
7,437.546 km
Eccentricity
0.00052
Inclination
89.0005°
RAAN
268.2214°
Arg. of periapsis
80.5177°
True anomaly
279.5975°
Mean anomaly
279.6567°
Eccentric anomaly
279.6271°
Mean motion
3.38375 °/min
Orbital period
106.39 mins
BSTAR
0.000059175
Loading maneuver chart data...
Computing Atmospheric mass density...
Loading historical data...
Loading historical data...
Loading historical data...
Loading historical data...
Loading historical data...
Loading historical data...
Loading historical data...
Other satellites on launch #15 in the year 2026 (2026-01-22 UTC)

Documentation

Showing up to 5 results
|